This demonstration page uses our WeatherBlox Daily Observations layout. Learn more.

Left ArrowRight Arrow

39.01783, -85.05884

Hourly Observations for March 19, 2018

Temp ( °F °C ) Dew Point ( °F °C ) Humidity (%) Winds ( mph kmh ) Pressure ( in mb ) Visibility ( mi km ) Precip ( " mm )
12:52 am 00:52 Mostly Cloudy 43 6.1 23 -5 45 45 ENE 7 11 29.87 1012 10 16 N/A
1:52 am 01:52 Mostly Cloudy 44 6.7 22 -5.6 41 41 NNE 3 6 29.87 1011 10 16 N/A
2:52 am 02:52 Mostly Cloudy 41 5 23 -5 49 49 NE 5 7 29.86 1011 10 16 N/A
3:52 am 03:52 Mostly Cloudy 42 5.6 23 -5 47 47 NNE 7 11 29.84 1011 10 16 N/A
4:52 am 04:52 Mostly Cloudy 42 5.6 23 -5 47 47 ENE 6 9 29.84 1011 10 16 N/A
5:52 am 05:52 Cloudy 42 5.6 24 -4.4 49 49 ENE 7 11 29.82 1010 10 16 N/A
6:52 am 06:52 Cloudy 42 5.6 24 -4.4 49 49 ENE 6 9 29.83 1010 10 16 N/A
7:52 am 07:52 Cloudy 42 5.6 24 -4.4 49 49 E 7 11 29.84 1010 10 16 N/A
8:52 am 08:52 Mostly Cloudy 43 6.1 25 -3.9 49 49 ENE 7 11 29.84 1010 10 16 N/A
9:52 am 09:52 Mostly Cloudy 47 8.3 26 -3.3 44 44 ENE 9 15 29.83 1010 10 16 N/A
10:52 am 10:52 Mostly Sunny 51 10.6 27 -2.8 39 39 NE 10 17 29.82 1010 10 16 N/A
11:52 am 11:52 Partly Cloudy 55 12.8 27 -2.8 34 34 NE 10 17 29.81 1009 10 16 N/A
12:52 pm 12:52 Mostly Sunny 59 15 26 -3.3 28 28 NE 13 20 29.79 1009 10 16 N/A
1:52 pm 13:52 Mostly Cloudy 59 15 26 -3.3 28 28 ENE 7 11 29.77 1008 10 16 N/A
2:52 pm 14:52 Mostly Cloudy 61 16.1 28 -2.2 29 29 ENE 13 20 29.74 1007 10 16 N/A
3:52 pm 15:52 Mostly Cloudy 61 16.1 28 -2.2 29 29 ENE 17 28 29.68 1005 10 16 N/A
4:52 pm 16:52 Cloudy 59 15 27 -2.8 29 29 ENE 15 24 29.67 1005 10 16 N/A
5:52 pm 17:52 Cloudy 58 14.4 28 -2.2 32 32 ENE 15 24 29.65 1004 10 16 N/A
6:52 pm 18:52 Cloudy 57 13.9 26 -3.3 30 30 ENE 18 30 29.63 1004 10 16 N/A
7:52 pm 19:52 Cloudy 56 13.3 26 -3.3 32 32 ENE 18 30 29.64 1004 10 16 N/A
8:52 pm 20:52 Cloudy 55 12.8 26 -3.3 33 33 E 15 24 29.65 1004 10 16 N/A
9:41 pm 21:41 Cloudy with Light Rain 51 10.6 35 1.7 54 54 NNE 15 24 29.68 1005 10 16 N/A
9:52 pm 21:52 Cloudy with Light Rain 50 10 35 1.7 57 57 NNE 13 20 29.67 1005 9 14 N/A
10:52 pm 22:52 Cloudy with Light Rain 45 7.2 37 2.8 74 74 NE 20 31 29.65 1004 8 13 0.04 1.02
11:52 pm 23:52 Cloudy with Light Rain 43 6.1 35 1.7 74 74 NE 21 33 29.62 1003 10 16 0.01 0.25

Powered by AerisWeather